Location: Dzierzno
(50.6159°N, 19.2852°E)
Time: 03:04:02
(UTC+00:00)

SL-19 R/B - Pass Details

Date: 18 November 2025
Orbit: 795 x 1008 km, 99.6° (Epoch: 04 December)

Event Time Altitude Azimuth Distance (km) Brightness Sun altitude
Rises 16:29:03 0° 146° (SE) 3,300 7.1 -15.0°
Reaches altitude 10° 16:31:25 10° 141° (SE) 2,366 6.3 -15.4°
Maximum altitude 16:36:26 52° 66° (ENE) 988 4.2 -16.2°
Drops below altitude 10° 16:41:31 10° 351° (N) 2,400 6.5 -17.0°
Sets 16:43:55 0° 347° (NNW) 3,352 7.4 -17.3°
